Location: Blandford
(50.8667°N, 2.1667°W)
Time: 22:26:58
(UTC+00:00)

Cosmos 1697 Rocket - Pass Details

Date: 09 April 2020
Orbit: 831 x 845 km, 71.0° (Epoch: 28 May)

Event Time Altitude Azimuth Distance (km) Brightness Sun altitude
Rises 21:04:41 0° 331° (NNW) 3,413 7.2 -18.9°
Reaches altitude 10° 21:07:10 10° 334° (NNW) 2,475 6.1 -19.2°
Maximum altitude 21:12:49 64° 56° (ENE) 938 2.8 -19.8°
Enters shadow 21:14:54 38° 122° (ESE) 1,262 3.1 -20.1°
